Regional Weather Roundup
Issued by NWS Charleston, SC

Home | Current Version | Previous Version | Text Only | Print | Product List | Glossary On
Versions: 1 2 3 4 5 6 7 8 9 10 11 12 13 14 15 16 17 18 19 20 21 22 23 24 25 26 27 28 29 30 31 32 33 34 35 36 37 38 39 40 41 42 43 44 45 46 47 48 49 50
000
ASUS42 KCHS 212127
RWRCHS

REGIONAL WEATHER ROUNDUP
NATIONAL WEATHER SERVICE CHARLESTON SC
500 PM EDT SAT OCT 21 2017

NOTE: "FAIR" INDICATES FEW OR NO CLOUDS BELOW 12,000 FEET WITH NO
SIGNIFICANT WEATHER AND/OR OBSTRUCTIONS TO VISIBILITY.

NOT ALL STATIONS ARE QUALITY CONTROLLED. USE DATA WITH CAUTION...
ESPECIALLY DEWPOINT OBSERVATIONS.

SCZ027-030-031-034>040-042>050-212200-
...SOUTHEAST SOUTH CAROLINA...

CITY           SKY/WX    TMP DP  RH WIND       PRES   REMARKS
N CHARLESTON   PTSUNNY   77  64  64 E8        30.26R
WATERFRONT PRK NOT AVBL
JOHNS ISLAND   FAIR      75  64  69 NE13      30.26S
PINOPOLIS        N/A     75  66  73 VRB3      30.19S
MONCKS CORNER  FAIR      75  63  64 CALM      30.26S
SUMMERVILLE    MOCLDY    77  63  61 CALM      30.27R
BEAUFORT MCAS  SUNNY     78  67  68 MISG      30.26R
BEAUFORT ARPT  FAIR      75  63  64 E14       30.25S
HILTON HEAD IS MOSUNNY   75  66  73 MISG      30.26S
WALTERBORO     PTCLDY    77  61  57 SE5       30.26S
ALLENDALE        N/A     79  55  44 SE5         N/A

...SOUTHERN MIDLANDS AND PEE DEE...

CITY           SKY/WX    TMP DP  RH WIND       PRES   REMARKS
GEORGETOWN     FAIR      73  63  68 E7        30.29S
KINGSTREE      FAIR      75  57  53 CALM      30.27S
ORANGEBURG     CLOUDY    79  50  36 E6        30.26S
BARNWELL         N/A     81  50  34 E6        30.26R
AIKEN          FAIR      75  48  38 E5        30.30R
MANNING        FAIR      75  59  57 MISG      30.27S
COLUMBIA       CLOUDY    79  55  43 E8        30.26S
SUMTER         MOSUNNY   78  52  40 NE7       30.25S
FLORENCE       CLOUDY    78  52  40 S5        30.28S
MYRTLE BEACH   SUNNY     76  62  62 E10       30.30S
N MYRTLE BEACH SUNNY     76  60  57 E8        30.28S

$$

GAZ063-065-086>088-099>101-113>116-118-119-134>141-150-212200-
...SOUTHEAST GEORGIA...

CITY           SKY/WX    TMP DP  RH WIND       PRES   REMARKS
SAVANNAH ARPT  PTSUNNY   79  63  57 E15       30.24S
HUNTER AAF     CLOUDY    79  64  61 E10       30.22R
FORT STEWART   CLOUDY    80  64  58 E10       30.22R
STATESBORO     MOSUNNY   80  54  40 SE5       30.25R
SYLVANIA       CLEAR     78  62  57 SE5       30.25R
CLAXTON        FAIR      80  63  56 E5        30.23S

...CSRA...CENTRAL AND FAR SOUTHEAST GEORGIA...

CITY           SKY/WX    TMP DP  RH WIND       PRES   REMARKS
THOMSON        MOSUNNY   76  52  42 S6        30.31R
AUGUSTA-BUSH   MOSUNNY   81  52  36 E5        30.24S
AUGUSTA-DANIEL CLOUDY    80  49  33 E5        30.26S
SWAINSBORO     FAIR      81  55  41 E5        30.24S
VIDALIA        MOSUNNY   81  63  54 E8        30.23R
EASTMAN        FAIR      82  39  21 E7        30.24S
HAZLEHURST     MOCLDY    83  48  30 E12G18    30.20S
ALMA           PTSUNNY   80  62  54 VRB6      30.20S
WAYCROSS       MOSUNNY   80  60  49 E14G20    30.20S
JESUP          NOT AVBL
BAXLEY         FAIR      77  63  61 E3        30.21S
BRUNSWICK      SUNNY     77  64  65 NE17G23   30.23S
SAINT SIMONS   MOSUNNY   79  69  71 NE17      30.21F

$$

SCZ027-028-034-036>038-045-046-048>050-GAZ119-141-212200-
...LAKE AND SUPPLEMENTAL COASTAL OBSERVATIONS...

STATION/POSITION TIME  TEMP    WIND        PRES    WAVE   SWELL
                       AIR SEA DIR/SP/G            HT/PER HT/PER/DIR
                 (UTC) (F)     (DEG/KT/KT) (MB)    (FT/S) (FT/S/D)
WINYAH BAY       2030   73      80/  9     1025.0S
LAKE MURRAY      2120   78      70/  4/  7 1024.0S
ACE BASIN NERRS  2045   80      80/  4     1025.0R
FORT PULASKI     2100   74 74   70/ 12/ 16 1024.6
SAPELO ISLAND    NOT AVBL

$$

ANZ835-935-AMZ111-154-330-350-352-354-370-450-454-472-212200-
...C-MAN AND BUOY OBSERVATIONS...

STATION/POSITION TIME  TEMP    WIND        PRES    WAVE   SWELL
                       AIR SEA DIR/SP/G            HT/PER HT/PER/DIR
                 (UTC) (F)     (DEG/KT/KT) (MB)    (FT/S) (FT/S/D)
BUOY 41004       2110   77 80   50/ 16/ 19 1023.7
BUOY 41008       2050   76 77   50/ 16/ 19 1023.0R   5/ 6
FOLLY BEACH CMAN 2100   73      60/ 13/ 15 1025.6R
CAPERS NEARSHORE 2108   71 73   70/ 12/ 17 1024.5S
FRIPP NEARSHORE  2108   75      60/ 14/ 19   N/A


STATION/POSITION TIME  TEMP    WIND        PRES    WAVE   SWELL
                       AIR SEA DIR/SP/G            HT/PER HT/PER/DIR
                 (UTC) (F)     (DEG/KT/KT) (MB)    (FT/S) (FT/S/D)
5E ST. MARYS GA  2100      77                N/A     4/ 5
FRYING PAN BUOY  2110   75 76   50/ 12/ 14 1025.2
BUOY 41025       2050   73 81   30/  8/ 10 1026.1R   3/ 9   3/130/ 9
CAPE LOOKOUT NC  2100   72      60/ 11/ 11 1026.0R
BUOY 41002       2050   77 80   80/ 12/ 14 1024.2F   4/ 8   3/ 90/ 8
BUOY 41010       NOT AVBL
ST AUGUSTINE FL  2100   79 78   70/ 13/ 14 1022.0F


$$




USA.gov is the U.S. government's official web portal to all federal, state and local government web resources and services.